カタログに戻る

STARLINK-36263

運用中通信VLEO
NORAD 67202·PAYLOAD·🇺🇸 United States

打ち上げ Dec 17, 2025 から Vandenberg Space Force Base

Loading…

次のパス (今後24時間)

TLE

最新Source: CelesTrak SupGP

元期: Sep 14, 2026, 21:33 UTC

1 67202C 25304L   26257.89840278  .00031092  00000+0  26063-2 0  2579
2 67202  70.0016  57.4743 0002722 271.1722 114.6137 14.98304916    17

AllMySatでSTARLINK-36263をリアルタイム追跡

Download on the App Store